This demonstration page uses our WeatherBlox Daily Observations layout. Learn more.

38.89511, -77.03637

Hourly Observations for December 4, 2016

Temp ( °F °C ) Dew Point ( °F °C ) Humidity (%) Winds ( mph kmh ) Pressure ( in mb ) Visibility ( mi km ) Precip ( " mm )
12:52 am 00:52 Partly Cloudy 41 5 28 -2.2 60 60 W 7 11 30.29 1026 10 16.0934 0 0
1:52 am 01:52 Cloudy 40 4.4 28 -2.2 63 63 NW 7 11 30.29 1026 10 16.0934 0 0
2:52 am 02:52 Mostly Cloudy 40 4.4 28 -2.2 63 63 NNW 13 20 30.29 1026 10 16.0934 0 0
3:52 am 03:52 Partly Cloudy 40 4.4 27 -2.8 60 60 NW 13 20 30.27 1025 10 16.0934 0 0
4:52 am 04:52 Partly Cloudy 40 4.4 27 -2.8 60 60 NW 9 15 30.28 1025 10 16.0934 0 0
5:52 am 05:52 Mostly Cloudy 39 3.9 27 -2.8 62 62 NW 6 9 30.28 1025 10 16.0934 0 0
6:52 am 06:52 Cloudy 38 3.3 28 -2.2 68 68 VRB 5 7 30.29 1026 10 16.0934 0 0
7:52 am 07:52 Cloudy 40 4.4 28 -2.2 63 63 NW 6 9 30.29 1026 10 16.0934 0 0
8:52 am 08:52 Cloudy 41 5 29 -1.7 62 62 N 8 13 30.29 1026 10 16.0934 0 0
9:52 am 09:52 Cloudy 42 5.6 29 -1.7 60 60 NNW 8 13 30.3 1026 10 16.0934 0 0
10:52 am 10:52 Cloudy 45 7.2 30 -1.1 56 56 N 3 6 30.28 1026 10 16.0934 0 0
11:52 am 11:52 Cloudy 45 7.2 31 -0.6 58 58 Calm 30.26 1025 10 16.0934 0 0
12:52 pm 12:52 Cloudy 46 7.8 30 -1.1 54 54 ESE 3 6 30.25 1024 10 16.0934 0 0
1:52 pm 13:52 Cloudy 47 8.3 30 -1.1 52 52 Calm 30.23 1024 10 16.0934 0 0
2:52 pm 14:52 Cloudy 47 8.3 30 -1.1 52 52 S 6 9 30.21 1023 10 16.0934 0 0
3:52 pm 15:52 Cloudy 46 7.8 30 -1.1 54 54 S 7 11 30.21 1023 10 16.0934 0 0
4:52 pm 16:52 Cloudy 45 7.2 30 -1.1 56 56 S 7 11 30.2 1023 10 16.0934 0 0
5:52 pm 17:52 Cloudy 45 7.2 31 -0.6 58 58 S 6 9 30.19 1022 10 16.0934 0 0
6:52 pm 18:52 Cloudy 45 7.2 31 -0.6 58 58 S 9 15 30.18 1022 10 16.0934 0 0
7:52 pm 19:52 Cloudy 45 7.2 33 0.6 63 63 S 12 19 30.16 1021 10 16.0934 0 0
8:52 pm 20:52 Cloudy with Light Rain 44 6.7 34 1.1 68 68 S 10 17 30.16 1021 10 16.0934 0 0.0254
9:52 pm 21:52 Cloudy with Light Rain 43 6.1 36 2.2 76 76 S 9 15 30.14 1021 10 16.0934 0.01 0.254
10:52 pm 22:52 Cloudy with Light Rain 42 5.6 37 2.8 82 82 S 12 19 30.11 1020 10 16.0934 0.01 0.254
11:35 pm 23:35 Cloudy with Light Rain 41 5 39 4 93 93 S 14 22 30.09 1019 6 9.65604 0 0
11:52 pm 23:52 Cloudy with Light Rain 41 5 39 3.9 93 93 SSE 10 17 30.08 1019 5 8.0467 0.03 0.762

Powered by AerisWeather